Time,TemperatureF,DewpointF,PressureIn,WindDirection,WindDirectionDegrees,WindSpeedMPH,WindSpeedGustMPH,Humidity,HourlyPrecipIn,Conditions,Clouds,dailyrainin,SoftwareType,DateUTC
2013-01-26 00:00:00,14.3,11.9,30.15,SE,126,1.0,2.0,90,0.00,,SKC,0.00,VWS V14.00,2013-01-26 05:00:00,
2013-01-26 00:01:00,14.4,12.0,30.15,SE,126,0.0,2.0,90,0.00,,SKC,0.00,VWS V14.00,2013-01-26 05:01:00,
2013-01-26 00:03:00,14.5,12.1,30.15,SE,126,0.0,2.0,90,0.00,,SKC,0.00,VWS V14.00,2013-01-26 05:03:00,
2013-01-26 00:08:00,14.6,12.2,30.15,SE,126,0.0,2.0,90,0.00,,SKC,0.00,VWS V14.00,2013-01-26 05:08:00,
2013-01-26 00:13:00,14.7,12.3,30.15,SE,126,0.0,2.0,90,0.00,,SKC,0.00,VWS V14.00,2013-01-26 05:13:00,
2013-01-26 00:18:00,14.7,12.1,30.15,SE,126,0.0,2.0,89,0.00,,SKC,0.00,VWS V14.00,2013-01-26 05:18:00,
2013-01-26 00:23:00,14.7,12.1,30.15,SE,126,0.0,2.0,89,0.00,,SKC,0.00,VWS V14.00,2013-01-26 05:23:00,
2013-01-26 00:28:00,14.7,12.1,30.15,SE,126,0.0,0.0,89,0.00,,SKC,0.00,VWS V14.00,2013-01-26 05:28:00,
2013-01-26 00:30:00,14.7,12.1,30.15,SE,126,0.0,2.0,89,0.00,,SKC,0.00,VWS V14.00,2013-01-26 05:30:00,
2013-01-26 00:33:00,14.7,12.1,30.15,SE,126,0.0,0.0,89,0.00,,SKC,0.00,VWS V14.00,2013-01-26 05:33:00,
2013-01-26 00:38:00,14.7,12.1,30.15,SE,126,0.0,0.0,89,0.00,,SKC,0.00,VWS V14.00,2013-01-26 05:38:00,
2013-01-26 00:43:00,14.7,12.1,30.15,SE,126,0.0,0.0,89,0.00,,SKC,0.00,VWS V14.00,2013-01-26 05:43:00,
2013-01-26 00:48:00,14.7,12.1,30.14,SE,126,0.0,0.0,89,0.00,,SKC,0.00,VWS V14.00,2013-01-26 05:48:00,
2013-01-26 00:53:00,14.7,12.1,30.15,SE,126,0.0,1.0,89,0.00,,SKC,0.00,VWS V14.00,2013-01-26 05:53:00,
2013-01-26 00:58:00,14.8,12.1,30.14,SE,126,0.0,0.0,89,0.00,,SKC,0.00,VWS V14.00,2013-01-26 05:58:00,
2013-01-26 01:00:00,14.7,12.1,30.15,SE,126,0.0,1.0,89,0.00,,SKC,0.00,VWS V14.00,2013-01-26 06:00:00,
2013-01-26 01:03:00,14.9,12.2,30.14,SE,126,0.0,0.0,89,0.00,,SKC,0.00,VWS V14.00,2013-01-26 06:03:00,
2013-01-26 01:08:00,14.9,12.2,30.14,SE,126,0.0,1.0,89,0.00,,SKC,0.00,VWS V14.00,2013-01-26 06:08:00,
2013-01-26 01:13:00,14.9,12.2,30.14,SE,126,0.0,2.0,89,0.00,,SKC,0.00,VWS V14.00,2013-01-26 06:13:00,
2013-01-26 01:18:00,15.0,12.4,30.14,SE,126,0.0,2.0,89,0.00,,SKC,0.00,VWS V14.00,2013-01-26 06:18:00,
2013-01-26 01:23:00,15.0,12.4,30.14,SE,126,0.0,2.0,89,0.00,,SKC,0.00,VWS V14.00,2013-01-26 06:23:00,
2013-01-26 01:28:00,15.1,12.4,30.14,SE,126,0.0,0.0,89,0.00,,SKC,0.00,VWS V14.00,2013-01-26 06:28:00,
2013-01-26 01:30:00,15.1,12.4,30.14,SE,126,0.0,2.0,89,0.00,,SKC,0.00,VWS V14.00,2013-01-26 06:30:00,
2013-01-26 01:33:00,15.2,12.6,30.14,SE,126,0.0,0.0,89,0.00,,SKC,0.00,VWS V14.00,2013-01-26 06:33:00,
2013-01-26 01:38:00,15.2,12.6,30.14,SE,126,0.0,1.0,89,0.00,,SKC,0.00,VWS V14.00,2013-01-26 06:38:00,
2013-01-26 01:43:00,15.3,12.6,30.14,SE,126,0.0,1.0,89,0.00,,SKC,0.00,VWS V14.00,2013-01-26 06:43:00,
2013-01-26 01:48:00,15.4,12.7,30.14,SE,126,0.0,1.0,89,0.00,,SKC,0.00,VWS V14.00,2013-01-26 06:48:00,
2013-01-26 01:53:00,15.4,12.7,30.14,SE,126,0.0,1.0,89,0.00,,SKC,0.00,VWS V14.00,2013-01-26 06:53:00,
2013-01-26 01:58:00,15.5,12.8,30.14,SE,126,0.0,0.0,89,0.00,,SKC,0.00,VWS V14.00,2013-01-26 06:58:00,
2013-01-26 02:00:00,15.5,12.8,30.14,SE,126,0.0,1.0,89,0.00,,SKC,0.00,VWS V14.00,2013-01-26 07:00:00,
2013-01-26 02:03:00,15.5,12.8,30.13,SE,126,0.0,0.0,89,0.00,,SKC,0.00,VWS V14.00,2013-01-26 07:03:00,
2013-01-26 02:08:00,15.6,13.2,30.13,SE,126,0.0,0.0,90,0.00,,SKC,0.00,VWS V14.00,2013-01-26 07:08:00,
2013-01-26 02:13:00,15.6,12.9,30.13,SE,126,0.0,1.0,89,0.00,,SKC,0.00,VWS V14.00,2013-01-26 07:13:00,
2013-01-26 02:18:00,15.7,13.0,30.14,SE,126,0.0,1.0,89,0.00,,SKC,0.00,VWS V14.00,2013-01-26 07:18:00,
2013-01-26 02:23:00,15.7,13.0,30.14,SE,126,0.0,1.0,89,0.00,,SKC,0.00,VWS V14.00,2013-01-26 07:23:00,
2013-01-26 02:28:00,15.7,13.0,30.14,SE,126,0.0,0.0,89,0.00,,SKC,0.00,VWS V14.00,2013-01-26 07:28:00,
2013-01-26 02:30:00,15.7,13.0,30.14,SE,126,0.0,1.0,89,0.00,,SKC,0.00,VWS V14.00,2013-01-26 07:30:00,
2013-01-26 02:33:00,15.7,13.0,30.13,SE,126,0.0,0.0,89,0.00,,SKC,0.00,VWS V14.00,2013-01-26 07:33:00,
2013-01-26 02:38:00,15.8,13.1,30.13,SE,126,0.0,0.0,89,0.00,,SKC,0.00,VWS V14.00,2013-01-26 07:38:00,
2013-01-26 02:43:00,15.8,13.1,30.14,SE,126,0.0,0.0,89,0.00,,SKC,0.00,VWS V14.00,2013-01-26 07:43:00,
2013-01-26 02:48:00,15.8,13.1,30.14,SE,126,0.0,0.0,89,0.00,,SKC,0.00,VWS V14.00,2013-01-26 07:48:00,
2013-01-26 02:53:00,15.8,13.1,30.14,SE,126,0.0,0.0,89,0.00,,SKC,0.00,VWS V14.00,2013-01-26 07:53:00,
2013-01-26 02:58:00,15.9,13.2,30.14,SE,126,0.0,1.0,89,0.00,,SKC,0.00,VWS V14.00,2013-01-26 07:58:00,
2013-01-26 03:00:00,15.8,13.1,30.14,SE,126,0.0,0.0,89,0.00,,SKC,0.00,VWS V14.00,2013-01-26 08:00:00,
2013-01-26 03:03:00,15.9,13.2,30.14,SE,126,0.0,1.0,89,0.00,,SKC,0.00,VWS V14.00,2013-01-26 08:03:00,
2013-01-26 03:08:00,16.1,13.7,30.14,SE,126,0.0,1.0,90,0.00,,SKC,0.00,VWS V14.00,2013-01-26 08:08:00,
2013-01-26 03:13:00,16.1,13.7,30.14,SE,126,0.0,2.0,90,0.00,,SKC,0.00,VWS V14.00,2013-01-26 08:13:00,
2013-01-26 03:18:00,16.2,13.5,30.15,SE,126,0.0,2.0,89,0.00,,SKC,0.00,VWS V14.00,2013-01-26 08:18:00,
2013-01-26 03:23:00,16.2,13.5,30.15,SE,126,0.0,2.0,89,0.00,,SKC,0.00,VWS V14.00,2013-01-26 08:23:00,
2013-01-26 03:28:00,16.2,13.8,30.15,SE,126,0.0,1.0,90,0.00,,SKC,0.00,VWS V14.00,2013-01-26 08:28:00,
2013-01-26 03:30:00,16.2,13.8,30.15,SE,126,0.0,2.0,90,0.00,,SKC,0.00,VWS V14.00,2013-01-26 08:30:00,
2013-01-26 03:33:00,16.3,13.9,30.15,SE,126,0.0,1.0,90,0.00,,SKC,0.00,VWS V14.00,2013-01-26 08:33:00,
2013-01-26 03:38:00,16.3,13.9,30.15,SE,126,0.0,2.0,90,0.00,,SKC,0.00,VWS V14.00,2013-01-26 08:38:00,
2013-01-26 03:43:00,16.3,13.9,30.15,SE,126,0.0,2.0,90,0.00,,SKC,0.00,VWS V14.00,2013-01-26 08:43:00,
2013-01-26 03:48:00,16.4,14.0,30.15,SE,126,1.0,2.0,90,0.00,,SKC,0.00,VWS V14.00,2013-01-26 08:48:00,
2013-01-26 03:53:00,16.4,14.0,30.15,SE,126,1.0,2.0,90,0.00,,SKC,0.00,VWS V14.00,2013-01-26 08:53:00,
2013-01-26 03:58:00,16.5,14.1,30.15,SE,126,0.0,2.0,90,0.00,,SKC,0.00,VWS V14.00,2013-01-26 08:58:00,
2013-01-26 04:00:00,16.4,14.0,30.15,SE,126,0.0,2.0,90,0.00,,SKC,0.00,VWS V14.00,2013-01-26 09:00:00,
2013-01-26 04:03:00,16.5,14.1,30.15,SE,126,1.0,4.0,90,0.00,,SKC,0.00,VWS V14.00,2013-01-26 09:03:00,
2013-01-26 04:08:00,16.5,13.8,30.15,SE,126,0.0,4.0,89,0.00,,SKC,0.00,VWS V14.00,2013-01-26 09:08:00,
2013-01-26 04:13:00,16.5,13.8,30.16,SE,126,0.0,4.0,89,0.00,,SKC,0.00,VWS V14.00,2013-01-26 09:13:00,
2013-01-26 04:18:00,16.5,13.8,30.16,SE,132,1.0,4.0,89,0.00,,SKC,0.00,VWS V14.00,2013-01-26 09:18:00,
2013-01-26 04:23:00,16.5,13.8,30.17,SE,132,0.0,4.0,89,0.00,,SKC,0.00,VWS V14.00,2013-01-26 09:23:00,
2013-01-26 04:28:00,16.5,13.8,30.17,SW,227,2.0,3.0,89,0.00,,SKC,0.00,VWS V14.00,2013-01-26 09:28:00,
2013-01-26 04:30:00,16.5,13.8,30.17,SE,134,1.0,4.0,89,0.00,,SKC,0.00,VWS V14.00,2013-01-26 09:30:00,
2013-01-26 04:33:00,16.6,13.9,30.17,SW,227,2.0,3.0,89,0.00,,SKC,0.00,VWS V14.00,2013-01-26 09:33:00,
2013-01-26 04:38:00,16.6,13.9,30.17,WNW,290,1.0,5.0,89,0.00,,SKC,0.00,VWS V14.00,2013-01-26 09:38:00,
2013-01-26 04:43:00,16.6,14.2,30.17,WNW,290,4.0,5.0,90,0.00,,SKC,0.00,VWS V14.00,2013-01-26 09:43:00,
2013-01-26 04:48:00,16.6,14.2,30.17,WNW,290,0.0,5.0,90,0.00,,SKC,0.00,VWS V14.00,2013-01-26 09:48:00,
2013-01-26 04:53:00,16.6,13.9,30.17,WNW,290,1.0,5.0,89,0.00,,SKC,0.00,VWS V14.00,2013-01-26 09:53:00,
2013-01-26 04:58:00,16.7,14.3,30.17,WNW,290,0.0,4.0,90,0.00,,SKC,0.00,VWS V14.00,2013-01-26 09:58:00,
2013-01-26 05:00:00,16.7,14.0,30.17,WNW,290,1.0,5.0,89,0.00,,SKC,0.00,VWS V14.00,2013-01-26 10:00:00,
2013-01-26 05:03:00,16.7,14.3,30.17,WNW,290,2.0,4.0,90,0.00,,SKC,0.00,VWS V14.00,2013-01-26 10:03:00,
2013-01-26 05:08:00,16.7,14.0,30.17,WNW,290,0.0,4.0,89,0.00,,SKC,0.00,VWS V14.00,2013-01-26 10:08:00,
2013-01-26 05:13:00,16.6,13.9,30.18,WNW,290,0.0,4.0,89,0.00,,SKC,0.00,VWS V14.00,2013-01-26 10:13:00,
2013-01-26 05:18:00,16.6,13.9,30.18,WNW,290,0.0,4.0,89,0.00,,SKC,0.00,VWS V14.00,2013-01-26 10:18:00,
2013-01-26 05:23:00,16.5,13.8,30.18,WNW,291,0.0,4.0,89,0.00,,SKC,0.00,VWS V14.00,2013-01-26 10:23:00,
2013-01-26 05:28:00,16.4,13.7,30.18,WNW,291,1.0,4.0,89,0.00,,SKC,0.00,VWS V14.00,2013-01-26 10:28:00,
2013-01-26 05:30:00,16.5,13.8,30.18,WNW,291,0.0,4.0,89,0.00,,SKC,0.00,VWS V14.00,2013-01-26 10:30:00,
2013-01-26 05:33:00,16.4,13.7,30.18,WNW,291,0.0,4.0,89,0.00,,SKC,0.00,VWS V14.00,2013-01-26 10:33:00,
2013-01-26 05:38:00,16.4,13.7,30.18,WNW,291,0.0,4.0,89,0.00,,SKC,0.00,VWS V14.00,2013-01-26 10:38:00,
2013-01-26 05:43:00,16.4,13.7,30.18,WNW,291,2.0,4.0,89,0.00,,SKC,0.00,VWS V14.00,2013-01-26 10:43:00,
2013-01-26 05:48:00,16.5,13.8,30.18,WNW,291,2.0,4.0,89,0.00,,SKC,0.00,VWS V14.00,2013-01-26 10:48:00,
2013-01-26 05:53:00,16.5,13.8,30.19,WNW,291,0.0,4.0,89,0.00,,SKC,0.00,VWS V14.00,2013-01-26 10:53:00,
2013-01-26 05:58:00,16.5,13.8,30.19,WNW,291,0.0,2.0,89,0.00,,SKC,0.00,VWS V14.00,2013-01-26 10:58:00,
2013-01-26 06:00:00,16.5,13.8,30.19,WNW,291,2.0,4.0,89,0.00,,SKC,0.00,VWS V14.00,2013-01-26 11:00:00,
2013-01-26 06:03:00,16.6,14.2,30.19,WNW,291,0.0,4.0,90,0.00,,SKC,0.00,VWS V14.00,2013-01-26 11:03:00,
2013-01-26 06:08:00,16.7,14.3,30.20,WNW,291,4.0,5.0,90,0.00,,SKC,0.00,VWS V14.00,2013-01-26 11:08:00,
2013-01-26 06:13:00,16.8,14.4,30.20,WNW,291,0.0,5.0,90,0.00,,SKC,0.00,VWS V14.00,2013-01-26 11:13:00,
2013-01-26 06:18:00,16.8,14.4,30.20,WNW,291,1.0,5.0,90,0.00,,SKC,0.00,VWS V14.00,2013-01-26 11:18:00,
2013-01-26 06:23:00,16.8,14.1,30.21,WNW,291,0.0,5.0,89,0.00,,SKC,0.00,VWS V14.00,2013-01-26 11:23:00,
2013-01-26 06:28:00,16.8,14.1,30.21,WNW,291,1.0,2.0,89,0.00,,SKC,0.00,VWS V14.00,2013-01-26 11:28:00,
2013-01-26 06:30:00,16.9,14.2,30.21,WNW,291,2.0,5.0,89,0.00,,SKC,0.00,VWS V14.00,2013-01-26 11:30:00,
2013-01-26 06:33:00,16.9,14.2,30.21,WNW,291,1.0,2.0,89,0.00,,SKC,0.00,VWS V14.00,2013-01-26 11:33:00,
2013-01-26 06:38:00,17.0,14.3,30.22,WNW,291,2.0,4.0,89,0.00,,SKC,0.00,VWS V14.00,2013-01-26 11:38:00,
2013-01-26 06:43:00,17.0,14.3,30.22,WNW,291,1.0,4.0,89,0.00,,SKC,0.00,VWS V14.00,2013-01-26 11:43:00,
2013-01-26 06:48:00,17.1,14.4,30.22,WNW,291,0.0,4.0,89,0.00,,SKC,0.00,VWS V14.00,2013-01-26 11:48:00,
2013-01-26 06:53:00,17.1,14.4,30.22,WNW,291,0.0,4.0,89,0.00,,SKC,0.00,VWS V14.00,2013-01-26 11:53:00,
2013-01-26 06:58:00,17.1,14.4,30.22,WNW,291,0.0,1.0,89,0.00,,SKC,0.00,VWS V14.00,2013-01-26 11:58:00,
2013-01-26 07:00:00,17.1,14.4,30.22,WNW,291,0.0,4.0,89,0.00,,SKC,0.00,VWS V14.00,2013-01-26 12:00:00,
2013-01-26 07:03:00,17.1,14.4,30.22,WNW,291,1.0,2.0,89,0.00,,SKC,0.00,VWS V14.00,2013-01-26 12:03:00,
2013-01-26 07:08:00,17.2,14.5,30.22,WNW,291,1.0,4.0,89,0.00,,SKC,0.00,VWS V14.00,2013-01-26 12:08:00,
2013-01-26 07:13:00,17.2,14.5,30.22,WNW,291,1.0,4.0,89,0.00,,SKC,0.00,VWS V14.00,2013-01-26 12:13:00,
2013-01-26 07:18:00,17.2,14.5,30.22,WNW,291,0.0,4.0,89,0.00,,SKC,0.00,VWS V14.00,2013-01-26 12:18:00,
2013-01-26 07:23:00,17.2,14.5,30.22,WNW,291,0.0,4.0,89,0.00,,SKC,0.00,VWS V14.00,2013-01-26 12:23:00,
2013-01-26 07:28:00,17.2,14.5,30.23,WNW,291,0.0,2.0,89,0.00,,SKC,0.00,VWS V14.00,2013-01-26 12:28:00,
2013-01-26 07:30:00,17.2,14.5,30.22,WNW,291,1.0,4.0,89,0.00,,SKC,0.00,VWS V14.00,2013-01-26 12:30:00,
2013-01-26 07:33:00,17.2,14.5,30.23,WNW,291,0.0,2.0,89,0.00,,SKC,0.00,VWS V14.00,2013-01-26 12:33:00,
2013-01-26 07:38:00,17.3,14.6,30.23,WNW,291,1.0,4.0,89,0.00,,SKC,0.00,VWS V14.00,2013-01-26 12:38:00,
2013-01-26 07:43:00,17.4,14.7,30.23,WNW,291,0.0,4.0,89,0.00,,SKC,0.00,VWS V14.00,2013-01-26 12:43:00,
2013-01-26 07:48:00,17.4,14.7,30.24,WNW,291,0.0,4.0,89,0.00,,SKC,0.00,VWS V14.00,2013-01-26 12:48:00,
2013-01-26 07:53:00,17.4,14.7,30.24,WNW,291,0.0,4.0,89,0.00,,SKC,0.00,VWS V14.00,2013-01-26 12:53:00,
2013-01-26 07:58:00,17.5,14.8,30.24,WNW,291,2.0,4.0,89,0.00,,SKC,0.00,VWS V14.00,2013-01-26 12:58:00,
2013-01-26 08:00:00,17.4,14.7,30.24,WNW,291,0.0,4.0,89,0.00,,SKC,0.00,VWS V14.00,2013-01-26 13:00:00,
2013-01-26 08:03:00,17.5,14.8,30.24,WNW,291,0.0,4.0,89,0.00,,SKC,0.00,VWS V14.00,2013-01-26 13:03:00,
2013-01-26 08:08:00,17.6,14.9,30.25,WNW,291,2.0,4.0,89,0.00,,SKC,0.00,VWS V14.00,2013-01-26 13:08:00,
2013-01-26 08:13:00,17.7,15.0,30.25,WNW,291,0.0,4.0,89,0.00,,SKC,0.00,VWS V14.00,2013-01-26 13:13:00,
2013-01-26 08:18:00,17.8,15.1,30.25,WNW,291,0.0,4.0,89,0.00,,SKC,0.00,VWS V14.00,2013-01-26 13:18:00,
2013-01-26 08:23:00,17.9,15.2,30.25,WNW,291,2.0,4.0,89,0.00,,SKC,0.00,VWS V14.00,2013-01-26 13:23:00,
2013-01-26 08:28:00,18.0,15.1,30.25,WNW,291,1.0,5.0,88,0.00,,SKC,0.00,VWS V14.00,2013-01-26 13:28:00,
2013-01-26 08:30:00,17.9,15.2,30.25,WNW,291,2.0,4.0,89,0.00,,SKC,0.00,VWS V14.00,2013-01-26 13:30:00,
2013-01-26 08:33:00,18.1,15.1,30.25,WNW,291,2.0,5.0,88,0.00,,SKC,0.00,VWS V14.00,2013-01-26 13:33:00,
2013-01-26 08:38:00,18.2,15.2,30.25,WNW,291,1.0,5.0,88,0.00,,SKC,0.00,VWS V14.00,2013-01-26 13:38:00,
2013-01-26 08:43:00,18.3,15.4,30.25,WNW,291,0.0,5.0,88,0.00,,SKC,0.00,VWS V14.00,2013-01-26 13:43:00,
2013-01-26 08:48:00,18.4,15.4,30.25,WNW,291,1.0,5.0,88,0.00,,SKC,0.00,VWS V14.00,2013-01-26 13:48:00,
2013-01-26 08:53:00,18.5,15.3,30.25,WNW,291,2.0,5.0,87,0.00,,SKC,0.00,VWS V14.00,2013-01-26 13:53:00,
2013-01-26 08:58:00,18.7,15.5,30.25,WNW,291,1.0,4.0,87,0.00,,SKC,0.00,VWS V14.00,2013-01-26 13:58:00,
2013-01-26 09:00:00,18.5,15.3,30.25,WNW,291,1.0,5.0,87,0.00,,SKC,0.00,VWS V14.00,2013-01-26 14:00:00,
2013-01-26 09:02:00,18.8,15.6,30.25,WNW,298,2.0,4.0,87,0.00,,SKC,0.00,VWS V14.00,2013-01-26 14:02:00,
2013-01-26 09:07:00,19.1,15.6,30.25,WNW,299,2.0,6.0,86,0.00,,SKC,0.00,VWS V14.00,2013-01-26 14:07:00,
2013-01-26 09:12:00,19.3,15.5,30.25,WNW,300,1.0,6.0,85,0.00,,SKC,0.00,VWS V14.00,2013-01-26 14:12:00,
2013-01-26 09:17:00,19.6,15.3,30.25,North,355,4.0,6.0,83,0.00,,SKC,0.00,VWS V14.00,2013-01-26 14:17:00,
2013-01-26 09:22:00,19.8,15.2,30.26,NNW,338,5.0,7.0,82,0.00,,SKC,0.00,VWS V14.00,2013-01-26 14:22:00,
2013-01-26 09:27:00,19.9,14.7,30.26,North,349,6.0,8.0,80,0.00,,SKC,0.00,VWS V14.00,2013-01-26 14:27:00,
2013-01-26 09:30:00,19.8,15.2,30.26,NW,319,6.0,7.0,82,0.00,,SKC,0.00,VWS V14.00,2013-01-26 14:30:00,
2013-01-26 09:32:00,20.0,14.6,30.26,NNW,327,8.0,12.0,79,0.00,,SKC,0.00,VWS V14.00,2013-01-26 14:32:00,
2013-01-26 09:37:00,19.9,14.2,30.27,NNW,329,4.0,12.0,78,0.00,,SKC,0.00,VWS V14.00,2013-01-26 14:37:00,
2013-01-26 09:42:00,20.0,14.0,30.26,NNW,327,5.0,12.0,77,0.00,,SKC,0.00,VWS V14.00,2013-01-26 14:42:00,
2013-01-26 09:47:00,20.1,14.4,30.27,NNW,340,2.0,12.0,78,0.00,,SKC,0.00,VWS V14.00,2013-01-26 14:47:00,
2013-01-26 09:52:00,20.2,14.4,30.27,NNW,347,7.0,12.0,78,0.00,,SKC,0.00,VWS V14.00,2013-01-26 14:52:00,
2013-01-26 09:57:00,20.2,13.9,30.27,NNW,329,2.0,6.0,76,0.00,,SKC,0.00,VWS V14.00,2013-01-26 14:57:00,
2013-01-26 10:00:00,20.2,14.2,30.27,NW,323,6.0,12.0,77,0.00,,SKC,0.00,VWS V14.00,2013-01-26 15:00:00,
2013-01-26 10:02:00,20.3,14.0,30.27,NNW,341,9.0,9.0,76,0.00,,SKC,0.00,VWS V14.00,2013-01-26 15:02:00,
2013-01-26 10:07:00,20.3,14.0,30.28,NW,323,4.0,9.0,76,0.00,,SKC,0.00,VWS V14.00,2013-01-26 15:07:00,
2013-01-26 10:12:00,20.4,14.1,30.28,NNW,348,4.0,9.0,76,0.00,,SKC,0.00,VWS V14.00,2013-01-26 15:12:00,
2013-01-26 10:17:00,20.6,14.2,30.28,NNW,331,7.0,9.0,76,0.00,,SKC,0.00,VWS V14.00,2013-01-26 15:17:00,
2013-01-26 10:22:00,20.6,13.6,30.28,North,355,5.0,9.0,74,0.00,,SKC,0.00,VWS V14.00,2013-01-26 15:22:00,
2013-01-26 10:27:00,20.8,14.1,30.28,NW,326,5.0,6.0,75,0.00,,SKC,0.00,VWS V14.00,2013-01-26 15:27:00,
2013-01-26 10:30:00,20.6,13.6,30.28,NNW,336,5.0,9.0,74,0.00,,SKC,0.00,VWS V14.00,2013-01-26 15:30:00,
2013-01-26 10:32:00,20.9,13.9,30.29,NW,325,4.0,8.0,74,0.00,,SKC,0.00,VWS V14.00,2013-01-26 15:32:00,
2013-01-26 10:37:00,20.9,13.9,30.29,NNW,327,4.0,8.0,74,0.00,,SKC,0.00,VWS V14.00,2013-01-26 15:37:00,
2013-01-26 10:42:00,21.0,13.7,30.30,WNW,302,7.0,9.0,73,0.00,,SKC,0.00,VWS V14.00,2013-01-26 15:42:00,
2013-01-26 10:47:00,21.0,13.4,30.30,WNW,297,6.0,9.0,72,0.00,,SKC,0.00,VWS V14.00,2013-01-26 15:47:00,
2013-01-26 10:52:00,21.0,13.4,30.31,WNW,303,6.0,9.0,72,0.00,,SKC,0.00,VWS V14.00,2013-01-26 15:52:00,
2013-01-26 10:57:00,21.1,13.5,30.31,WNW,296,6.0,8.0,72,0.00,,SKC,0.00,VWS V14.00,2013-01-26 15:57:00,
2013-01-26 11:00:00,21.0,13.4,30.31,NNW,336,6.0,9.0,72,0.00,,SKC,0.00,VWS V14.00,2013-01-26 16:00:00,
2013-01-26 11:02:00,21.1,13.5,30.31,NW,326,6.0,9.0,72,0.00,,SKC,0.00,VWS V14.00,2013-01-26 16:02:00,
2013-01-26 11:07:00,21.2,13.6,30.31,NW,310,5.0,9.0,72,0.00,,SKC,0.00,VWS V14.00,2013-01-26 16:07:00,
2013-01-26 11:12:00,21.2,13.6,30.32,NW,321,6.0,9.0,72,0.00,,SKC,0.00,VWS V14.00,2013-01-26 16:12:00,
2013-01-26 11:17:00,21.4,14.1,30.31,NNW,341,8.0,9.0,73,0.00,,SKC,0.00,VWS V14.00,2013-01-26 16:17:00,
2013-01-26 11:22:00,21.5,13.9,30.30,NW,321,2.0,12.0,72,0.00,,SKC,0.00,VWS V14.00,2013-01-26 16:22:00,
2013-01-26 11:27:00,21.6,14.0,30.30,NW,310,6.0,12.0,72,0.00,,SKC,0.00,VWS V14.00,2013-01-26 16:27:00,
2013-01-26 11:30:00,21.5,13.9,30.30,NW,309,6.0,12.0,72,0.00,,SKC,0.00,VWS V14.00,2013-01-26 16:30:00,
2013-01-26 11:32:00,21.6,14.0,30.29,NNW,329,5.0,12.0,72,0.00,,SKC,0.00,VWS V14.00,2013-01-26 16:32:00,
2013-01-26 11:37:00,21.8,14.2,30.29,WNW,294,6.0,12.0,72,0.00,,SKC,0.00,VWS V14.00,2013-01-26 16:37:00,
2013-01-26 11:42:00,22.1,14.1,30.29,WNW,302,2.0,12.0,71,0.00,,SKC,0.00,VWS V14.00,2013-01-26 16:42:00,
2013-01-26 11:47:00,22.3,14.7,30.28,NW,309,5.0,12.0,72,0.00,,SKC,0.00,VWS V14.00,2013-01-26 16:47:00,
2013-01-26 11:52:00,22.4,14.4,30.28,NW,323,4.0,12.0,71,0.00,,SKC,0.00,VWS V14.00,2013-01-26 16:52:00,
2013-01-26 11:57:00,22.6,14.3,30.27,NW,314,5.0,7.0,70,0.00,,SKC,0.00,VWS V14.00,2013-01-26 16:57:00,
2013-01-26 12:00:00,22.5,14.5,30.28,NW,323,5.0,12.0,71,0.00,,SKC,0.00,VWS V14.00,2013-01-26 17:00:00,
2013-01-26 12:02:00,22.7,14.4,30.27,NW,314,6.0,7.0,70,0.00,,SKC,0.00,VWS V14.00,2013-01-26 17:02:00,
2013-01-26 12:07:00,22.7,14.1,30.26,NNW,329,5.0,9.0,69,0.00,,SKC,0.00,VWS V14.00,2013-01-26 17:07:00,
2013-01-26 12:12:00,22.7,14.1,30.26,WNW,296,6.0,9.0,69,0.00,,SKC,0.00,VWS V14.00,2013-01-26 17:12:00,
2013-01-26 12:17:00,22.7,13.7,30.26,NW,305,4.0,9.0,68,0.00,,SKC,0.00,VWS V14.00,2013-01-26 17:17:00,
2013-01-26 12:22:00,22.9,14.3,30.27,NW,312,5.0,9.0,69,0.00,,SKC,0.00,VWS V14.00,2013-01-26 17:22:00,
2013-01-26 12:27:00,23.1,14.1,30.26,NW,319,6.0,8.0,68,0.00,,SKC,0.00,VWS V14.00,2013-01-26 17:27:00,
2013-01-26 12:30:00,22.9,13.9,30.26,NW,321,4.0,9.0,68,0.00,,SKC,0.00,VWS V14.00,2013-01-26 17:30:00,
2013-01-26 12:32:00,23.5,14.5,30.26,NW,323,6.0,8.0,68,0.00,,SKC,0.00,VWS V14.00,2013-01-26 17:32:00,
2013-01-26 12:37:00,23.5,14.2,30.27,NW,319,5.0,9.0,67,0.00,,SKC,0.00,VWS V14.00,2013-01-26 17:37:00,
2013-01-26 12:42:00,23.5,14.5,30.27,WNW,294,8.0,9.0,68,0.00,,SKC,0.00,VWS V14.00,2013-01-26 17:42:00,
2013-01-26 12:47:00,23.8,14.8,30.27,NW,316,4.0,9.0,68,0.00,,SKC,0.00,VWS V14.00,2013-01-26 17:47:00,
2013-01-26 12:52:00,24.0,14.6,30.27,NW,305,8.0,10.0,67,0.00,,SKC,0.00,VWS V14.00,2013-01-26 17:52:00,
2013-01-26 12:57:00,23.9,14.2,30.27,NW,308,2.0,11.0,66,0.00,,SKC,0.00,VWS V14.00,2013-01-26 17:57:00,
2013-01-26 13:00:00,24.0,15.0,30.27,NNW,327,7.0,10.0,68,0.00,,SKC,0.00,VWS V14.00,2013-01-26 18:00:00,
2013-01-26 13:02:00,23.9,14.6,30.27,NNW,336,5.0,11.0,67,0.00,,SKC,0.00,VWS V14.00,2013-01-26 18:02:00,
2013-01-26 13:07:00,23.9,14.2,30.27,WNW,303,5.0,11.0,66,0.00,,SKC,0.00,VWS V14.00,2013-01-26 18:07:00,
2013-01-26 13:12:00,24.0,14.6,30.26,NW,313,6.0,11.0,67,0.00,,SKC,0.00,VWS V14.00,2013-01-26 18:12:00,
2013-01-26 13:17:00,24.2,15.2,30.26,NW,310,7.0,11.0,68,0.00,,SKC,0.00,VWS V14.00,2013-01-26 18:17:00,
2013-01-26 13:22:00,24.3,14.6,30.26,NW,312,7.0,11.0,66,0.00,,SKC,0.00,VWS V14.00,2013-01-26 18:22:00,
2013-01-26 13:27:00,24.4,15.0,30.27,NW,312,5.0,8.0,67,0.00,,SKC,0.00,VWS V14.00,2013-01-26 18:27:00,
2013-01-26 13:30:00,24.3,14.6,30.26,NW,315,8.0,11.0,66,0.00,,SKC,0.00,VWS V14.00,2013-01-26 18:30:00,
2013-01-26 13:32:00,24.5,14.4,30.27,WNW,295,5.0,8.0,65,0.00,,SKC,0.00,VWS V14.00,2013-01-26 18:32:00,
2013-01-26 13:37:00,24.5,14.8,30.27,NW,318,7.0,11.0,66,0.00,,SKC,0.00,VWS V14.00,2013-01-26 18:37:00,
2013-01-26 13:42:00,24.7,14.6,30.27,NW,313,11.0,11.0,65,0.00,,SKC,0.00,VWS V14.00,2013-01-26 18:42:00,
2013-01-26 13:47:00,24.8,15.1,30.27,NW,309,5.0,12.0,66,0.00,,SKC,0.00,VWS V14.00,2013-01-26 18:47:00,
2013-01-26 13:52:00,25.0,14.9,30.27,NW,326,7.0,12.0,65,0.00,,SKC,0.00,VWS V14.00,2013-01-26 18:52:00,
2013-01-26 13:57:00,25.3,14.8,30.27,NNW,334,4.0,7.0,64,0.00,,SKC,0.00,VWS V14.00,2013-01-26 18:57:00,
2013-01-26 14:00:00,25.1,15.0,30.27,North,5,3.0,12.0,65,0.00,,SKC,0.00,VWS V14.00,2013-01-26 19:00:00,
2013-01-26 14:02:00,25.5,15.0,30.27,NW,306,7.0,11.0,64,0.00,,SKC,0.00,VWS V14.00,2013-01-26 19:02:00,
2013-01-26 14:07:00,25.5,15.4,30.27,NW,320,2.0,11.0,65,0.00,,SKC,0.00,VWS V14.00,2013-01-26 19:07:00,
2013-01-26 14:12:00,25.5,15.4,30.27,NNW,331,7.0,11.0,65,0.00,,SKC,0.00,VWS V14.00,2013-01-26 19:12:00,
2013-01-26 14:17:00,25.4,14.9,30.27,NW,304,6.0,11.0,64,0.00,,SKC,0.00,VWS V14.00,2013-01-26 19:17:00,
2013-01-26 14:22:00,25.6,15.1,30.27,NW,314,5.0,11.0,64,0.00,,SKC,0.00,VWS V14.00,2013-01-26 19:22:00,
2013-01-26 14:27:00,25.8,15.3,30.28,NNW,333,5.0,9.0,64,0.00,,SKC,0.00,VWS V14.00,2013-01-26 19:27:00,
2013-01-26 14:30:00,25.7,15.6,30.27,NW,315,4.0,11.0,65,0.00,,SKC,0.00,VWS V14.00,2013-01-26 19:30:00,
2013-01-26 14:32:00,25.9,15.1,30.28,WNW,296,5.0,12.0,63,0.00,,SKC,0.00,VWS V14.00,2013-01-26 19:32:00,
2013-01-26 14:37:00,26.0,15.1,30.28,NW,306,6.0,12.0,63,0.00,,SKC,0.00,VWS V14.00,2013-01-26 19:37:00,
2013-01-26 14:42:00,26.1,15.6,30.28,WNW,303,9.0,12.0,64,0.00,,SKC,0.00,VWS V14.00,2013-01-26 19:42:00,
2013-01-26 14:47:00,26.1,15.2,30.28,WNW,284,4.0,12.0,63,0.00,,SKC,0.00,VWS V14.00,2013-01-26 19:47:00,
2013-01-26 14:52:00,26.3,15.1,30.29,NW,308,7.0,12.0,62,0.00,,SKC,0.00,VWS V14.00,2013-01-26 19:52:00,
2013-01-26 14:57:00,26.4,15.2,30.28,WNW,286,8.0,12.0,62,0.00,,SKC,0.00,VWS V14.00,2013-01-26 19:57:00,
2013-01-26 15:00:00,26.3,15.4,30.28,WNW,300,5.0,12.0,63,0.00,,SKC,0.00,VWS V14.00,2013-01-26 20:00:00,
2013-01-26 15:02:00,26.4,15.2,30.29,NW,304,9.0,12.0,62,0.00,,SKC,0.00,VWS V14.00,2013-01-26 20:02:00,
2013-01-26 15:07:00,26.4,15.2,30.29,WNW,300,4.0,12.0,62,0.00,,SKC,0.00,VWS V14.00,2013-01-26 20:07:00,
2013-01-26 15:12:00,26.6,15.4,30.29,WNW,289,4.0,16.0,62,0.00,,SKC,0.00,VWS V14.00,2013-01-26 20:12:00,
2013-01-26 15:17:00,26.7,15.4,30.29,West,260,5.0,16.0,62,0.00,,SKC,0.00,VWS V14.00,2013-01-26 20:17:00,
2013-01-26 15:22:00,26.6,15.0,30.29,WNW,303,5.0,16.0,61,0.00,,SKC,0.00,VWS V14.00,2013-01-26 20:22:00,
2013-01-26 15:27:00,26.6,15.4,30.29,NW,322,5.0,9.0,62,0.00,,SKC,0.00,VWS V14.00,2013-01-26 20:27:00,
2013-01-26 15:30:00,26.6,15.4,30.29,NW,321,7.0,16.0,62,0.00,,SKC,0.00,VWS V14.00,2013-01-26 20:30:00,
2013-01-26 15:32:00,26.7,15.1,30.29,NW,304,5.0,9.0,61,0.00,,SKC,0.00,VWS V14.00,2013-01-26 20:32:00,
2013-01-26 15:37:00,26.6,15.4,30.30,NNW,331,5.0,9.0,62,0.00,,SKC,0.00,VWS V14.00,2013-01-26 20:37:00,
2013-01-26 15:42:00,26.8,15.2,30.29,NW,325,5.0,10.0,61,0.00,,SKC,0.00,VWS V14.00,2013-01-26 20:42:00,
2013-01-26 15:47:00,27.0,15.4,30.29,North,360,3.0,10.0,61,0.00,,SKC,0.00,VWS V14.00,2013-01-26 20:47:00,
2013-01-26 15:52:00,27.1,15.1,30.29,North,5,3.0,11.0,60,0.00,,SKC,0.00,VWS V14.00,2013-01-26 20:52:00,
2013-01-26 15:57:00,27.2,15.2,30.29,NNW,327,5.0,8.0,60,0.00,,SKC,0.00,VWS V14.00,2013-01-26 20:57:00,
2013-01-26 16:00:00,27.1,15.4,30.29,North,10,4.0,11.0,61,0.00,,SKC,0.00,VWS V14.00,2013-01-26 21:00:00,
2013-01-26 16:02:00,27.1,14.7,30.29,WNW,297,4.0,8.0,59,0.00,,SKC,0.00,VWS V14.00,2013-01-26 21:02:00,
2013-01-26 16:07:00,26.9,14.9,30.29,NW,315,5.0,9.0,60,0.00,,SKC,0.00,VWS V14.00,2013-01-26 21:07:00,
2013-01-26 16:12:00,26.8,15.2,30.30,NNW,333,6.0,9.0,61,0.00,,SKC,0.00,VWS V14.00,2013-01-26 21:12:00,
2013-01-26 16:17:00,26.7,15.1,30.30,NW,304,6.0,9.0,61,0.00,,SKC,0.00,VWS V14.00,2013-01-26 21:17:00,
2013-01-26 16:22:00,26.6,15.0,30.30,NW,307,2.0,9.0,61,0.00,,SKC,0.00,VWS V14.00,2013-01-26 21:22:00,
2013-01-26 16:27:00,26.6,15.4,30.30,NW,319,6.0,10.0,62,0.00,,SKC,0.00,VWS V14.00,2013-01-26 21:27:00,
2013-01-26 16:30:00,26.6,15.4,30.30,NW,318,4.0,9.0,62,0.00,,SKC,0.00,VWS V14.00,2013-01-26 21:30:00,
2013-01-26 16:32:00,26.4,15.2,30.30,NW,313,4.0,10.0,62,0.00,,SKC,0.00,VWS V14.00,2013-01-26 21:32:00,
2013-01-26 16:37:00,26.4,15.2,30.30,NW,317,4.0,10.0,62,0.00,,SKC,0.00,VWS V14.00,2013-01-26 21:37:00,
2013-01-26 16:42:00,26.2,15.0,30.31,NW,308,5.0,10.0,62,0.00,,SKC,0.00,VWS V14.00,2013-01-26 21:42:00,
2013-01-26 16:47:00,26.0,15.1,30.31,NW,311,4.0,10.0,63,0.00,,SKC,0.00,VWS V14.00,2013-01-26 21:47:00,
2013-01-26 16:52:00,25.9,15.4,30.32,NW,311,1.0,10.0,64,0.00,,SKC,0.00,VWS V14.00,2013-01-26 21:52:00,
2013-01-26 16:57:00,25.7,15.2,30.32,NW,314,4.0,5.0,64,0.00,,SKC,0.00,VWS V14.00,2013-01-26 21:57:00,
2013-01-26 17:00:00,25.9,15.4,30.32,NW,311,4.0,10.0,64,0.00,,SKC,0.00,VWS V14.00,2013-01-26 22:00:00,
2013-01-26 17:02:00,25.7,15.2,30.32,NW,316,1.0,6.0,64,0.00,,SKC,0.00,VWS V14.00,2013-01-26 22:02:00,
2013-01-26 17:07:00,25.5,15.0,30.33,NW,316,2.0,6.0,64,0.00,,SKC,0.00,VWS V14.00,2013-01-26 22:07:00,
2013-01-26 17:12:00,25.4,15.3,30.33,NW,321,5.0,7.0,65,0.00,,SKC,0.00,VWS V14.00,2013-01-26 22:12:00,
2013-01-26 17:17:00,25.2,15.1,30.33,NW,321,2.0,7.0,65,0.00,,SKC,0.00,VWS V14.00,2013-01-26 22:17:00,
2013-01-26 17:22:00,25.1,15.0,30.33,NW,324,2.0,7.0,65,0.00,,SKC,0.00,VWS V14.00,2013-01-26 22:22:00,
2013-01-26 17:27:00,25.0,14.9,30.33,NW,324,1.0,4.0,65,0.00,,SKC,0.00,VWS V14.00,2013-01-26 22:27:00,
2013-01-26 17:30:00,25.1,15.0,30.33,NW,324,1.0,7.0,65,0.00,,SKC,0.00,VWS V14.00,2013-01-26 22:30:00,
2013-01-26 17:32:00,24.8,14.7,30.33,NW,325,2.0,5.0,65,0.00,,SKC,0.00,VWS V14.00,2013-01-26 22:32:00,
2013-01-26 17:37:00,24.6,14.9,30.33,NW,325,1.0,5.0,66,0.00,,SKC,0.00,VWS V14.00,2013-01-26 22:37:00,
2013-01-26 17:42:00,24.3,14.6,30.33,NW,325,1.0,5.0,66,0.00,,SKC,0.00,VWS V14.00,2013-01-26 22:42:00,
2013-01-26 17:47:00,23.9,14.6,30.33,NW,325,0.0,5.0,67,0.00,,SKC,0.00,VWS V14.00,2013-01-26 22:47:00,
2013-01-26 17:52:00,23.5,14.2,30.34,NW,325,2.0,5.0,67,0.00,,SKC,0.00,VWS V14.00,2013-01-26 22:52:00,
2013-01-26 17:57:00,23.2,14.2,30.34,NW,325,0.0,2.0,68,0.00,,SKC,0.00,VWS V14.00,2013-01-26 22:57:00,
2013-01-26 18:00:00,23.4,14.1,30.34,NW,325,0.0,5.0,67,0.00,,SKC,0.00,VWS V14.00,2013-01-26 23:00:00,
2013-01-26 18:02:00,22.9,13.9,30.34,NW,325,0.0,2.0,68,0.00,,SKC,0.00,VWS V14.00,2013-01-26 23:02:00,
2013-01-26 18:07:00,22.7,14.1,30.34,NW,325,0.0,2.0,69,0.00,,SKC,0.00,VWS V14.00,2013-01-26 23:07:00,
2013-01-26 18:12:00,22.3,13.7,30.35,NW,325,0.0,2.0,69,0.00,,SKC,0.00,VWS V14.00,2013-01-26 23:12:00,
2013-01-26 18:17:00,22.0,13.7,30.36,NW,325,0.0,2.0,70,0.00,,SKC,0.00,VWS V14.00,2013-01-26 23:17:00,
2013-01-26 18:22:00,21.8,13.9,30.36,NW,325,0.0,2.0,71,0.00,,SKC,0.00,VWS V14.00,2013-01-26 23:22:00,
2013-01-26 18:27:00,21.6,13.7,30.36,NW,325,0.0,0.0,71,0.00,,SKC,0.00,VWS V14.00,2013-01-26 23:27:00,
2013-01-26 18:30:00,21.7,13.8,30.36,NW,325,0.0,2.0,71,0.00,,SKC,0.00,VWS V14.00,2013-01-26 23:30:00,
2013-01-26 18:32:00,21.2,13.3,30.36,NW,325,0.0,0.0,71,0.00,,SKC,0.00,VWS V14.00,2013-01-26 23:32:00,
2013-01-26 18:37:00,20.9,13.3,30.36,NW,325,0.0,0.0,72,0.00,,SKC,0.00,VWS V14.00,2013-01-26 23:37:00,
2013-01-26 18:42:00,20.6,13.0,30.36,NW,325,0.0,0.0,72,0.00,,SKC,0.00,VWS V14.00,2013-01-26 23:42:00,
2013-01-26 18:47:00,20.2,12.9,30.36,NW,325,0.0,0.0,73,0.00,,SKC,0.00,VWS V14.00,2013-01-26 23:47:00,
2013-01-26 18:52:00,19.8,12.9,30.36,NW,325,0.0,0.0,74,0.00,,SKC,0.00,VWS V14.00,2013-01-26 23:52:00,
2013-01-26 18:57:00,19.4,12.8,30.36,NW,325,0.0,0.0,75,0.00,,SKC,0.00,VWS V14.00,2013-01-26 23:57:00,
2013-01-26 19:00:00,19.7,12.8,30.36,NW,325,0.0,0.0,74,0.00,,SKC,0.00,VWS V14.00,2013-01-27 00:00:00,
2013-01-26 19:02:00,19.0,12.7,30.37,NW,325,0.0,0.0,76,0.00,,SKC,0.00,VWS V14.00,2013-01-27 00:02:00,
2013-01-26 19:07:00,18.9,12.9,30.37,NW,325,0.0,0.0,77,0.00,,SKC,0.00,VWS V14.00,2013-01-27 00:07:00,
2013-01-26 19:12:00,18.8,13.1,30.37,NW,325,0.0,0.0,78,0.00,,SKC,0.00,VWS V14.00,2013-01-27 00:12:00,
2013-01-26 19:17:00,18.6,12.9,30.37,NW,325,0.0,0.0,78,0.00,,SKC,0.00,VWS V14.00,2013-01-27 00:17:00,
2013-01-26 19:22:00,18.5,12.8,30.37,NW,325,0.0,0.0,78,0.00,,SKC,0.00,VWS V14.00,2013-01-27 00:22:00,
2013-01-26 19:27:00,18.3,12.6,30.38,NW,325,0.0,0.0,78,0.00,,SKC,0.00,VWS V14.00,2013-01-27 00:27:00,
2013-01-26 19:30:00,18.4,12.7,30.37,NW,325,0.0,0.0,78,0.00,,SKC,0.00,VWS V14.00,2013-01-27 00:30:00,
2013-01-26 19:32:00,18.1,12.7,30.38,NW,325,0.0,0.0,79,0.00,,SKC,0.00,VWS V14.00,2013-01-27 00:32:00,
2013-01-26 19:37:00,17.9,12.5,30.38,NW,325,0.0,0.0,79,0.00,,SKC,0.00,VWS V14.00,2013-01-27 00:37:00,
2013-01-26 19:42:00,17.6,12.2,30.38,NW,325,0.0,0.0,79,0.00,,SKC,0.00,VWS V14.00,2013-01-27 00:42:00,
2013-01-26 19:47:00,17.4,12.3,30.39,NW,325,0.0,0.0,80,0.00,,SKC,0.00,VWS V14.00,2013-01-27 00:47:00,
2013-01-26 19:52:00,17.3,12.2,30.39,NW,325,0.0,0.0,80,0.00,,SKC,0.00,VWS V14.00,2013-01-27 00:52:00,
2013-01-26 19:57:00,17.2,12.1,30.39,NW,325,0.0,0.0,80,0.00,,SKC,0.00,VWS V14.00,2013-01-27 00:57:00,
2013-01-26 20:00:00,17.3,12.2,30.39,NW,325,0.0,0.0,80,0.00,,SKC,0.00,VWS V14.00,2013-01-27 01:00:00,
2013-01-26 20:02:00,17.0,11.9,30.39,NW,325,0.0,0.0,80,0.00,,SKC,0.00,VWS V14.00,2013-01-27 01:02:00,
2013-01-26 20:07:00,16.8,11.7,30.39,NW,325,0.0,0.0,80,0.00,,SKC,0.00,VWS V14.00,2013-01-27 01:07:00,
2013-01-26 20:12:00,16.6,11.8,30.39,NW,325,0.0,0.0,81,0.00,,SKC,0.00,VWS V14.00,2013-01-27 01:12:00,
2013-01-26 20:17:00,16.5,11.7,30.39,NW,325,0.0,0.0,81,0.00,,SKC,0.00,VWS V14.00,2013-01-27 01:17:00,
2013-01-26 20:22:00,16.3,11.5,30.40,NW,325,0.0,0.0,81,0.00,,SKC,0.00,VWS V14.00,2013-01-27 01:22:00,
2013-01-26 20:27:00,16.2,11.7,30.40,NW,325,0.0,0.0,82,0.00,,SKC,0.00,VWS V14.00,2013-01-27 01:27:00,
2013-01-26 20:30:00,16.2,11.4,30.40,NW,325,0.0,1.0,81,0.00,,SKC,0.00,VWS V14.00,2013-01-27 01:30:00,
2013-01-26 20:32:00,16.2,11.7,30.40,NW,325,0.0,0.0,82,0.00,,SKC,0.00,VWS V14.00,2013-01-27 01:32:00,
2013-01-26 20:37:00,16.2,11.7,30.40,NW,325,0.0,0.0,82,0.00,,SKC,0.00,VWS V14.00,2013-01-27 01:37:00,
2013-01-26 20:42:00,16.2,11.4,30.40,NW,325,0.0,0.0,81,0.00,,SKC,0.00,VWS V14.00,2013-01-27 01:42:00,
2013-01-26 20:47:00,16.0,11.2,30.40,NW,325,0.0,0.0,81,0.00,,SKC,0.00,VWS V14.00,2013-01-27 01:47:00,
2013-01-26 20:52:00,15.8,11.0,30.41,NW,325,0.0,0.0,81,0.00,,SKC,0.00,VWS V14.00,2013-01-27 01:52:00,
2013-01-26 20:57:00,15.6,11.1,30.40,NW,325,0.0,0.0,82,0.00,,SKC,0.00,VWS V14.00,2013-01-27 01:57:00,
2013-01-26 21:00:00,15.7,11.2,30.40,NW,325,0.0,0.0,82,0.00,,SKC,0.00,VWS V14.00,2013-01-27 02:00:00,
2013-01-26 21:02:00,15.4,11.2,30.41,NW,325,0.0,0.0,83,0.00,,SKC,0.00,VWS V14.00,2013-01-27 02:02:00,
2013-01-26 21:07:00,15.1,10.9,30.41,NW,325,0.0,0.0,83,0.00,,SKC,0.00,VWS V14.00,2013-01-27 02:07:00,
2013-01-26 21:12:00,15.0,11.1,30.41,NW,325,0.0,0.0,84,0.00,,SKC,0.00,VWS V14.00,2013-01-27 02:12:00,
2013-01-26 21:17:00,14.8,10.9,30.41,NW,325,0.0,0.0,84,0.00,,SKC,0.00,VWS V14.00,2013-01-27 02:17:00,
2013-01-26 21:22:00,14.6,10.9,30.41,NW,325,0.0,0.0,85,0.00,,SKC,0.00,VWS V14.00,2013-01-27 02:22:00,
2013-01-26 21:27:00,14.4,10.7,30.42,NW,325,0.0,0.0,85,0.00,,SKC,0.00,VWS V14.00,2013-01-27 02:27:00,
2013-01-26 21:30:00,14.6,10.9,30.41,NW,325,0.0,0.0,85,0.00,,SKC,0.00,VWS V14.00,2013-01-27 02:30:00,
2013-01-26 21:32:00,14.2,10.5,30.42,NW,325,0.0,0.0,85,0.00,,SKC,0.00,VWS V14.00,2013-01-27 02:32:00,
2013-01-26 21:37:00,13.9,10.2,30.42,NW,325,0.0,0.0,85,0.00,,SKC,0.00,VWS V14.00,2013-01-27 02:37:00,
2013-01-26 21:42:00,13.8,10.1,30.43,NW,325,0.0,0.0,85,0.00,,SKC,0.00,VWS V14.00,2013-01-27 02:42:00,
2013-01-26 21:47:00,13.7,10.3,30.43,NW,325,0.0,0.0,86,0.00,,SKC,0.00,VWS V14.00,2013-01-27 02:47:00,
2013-01-26 21:52:00,13.6,10.2,30.43,NW,325,0.0,0.0,86,0.00,,SKC,0.00,VWS V14.00,2013-01-27 02:52:00,
2013-01-26 21:57:00,13.4,10.0,30.43,NW,325,0.0,0.0,86,0.00,,SKC,0.00,VWS V14.00,2013-01-27 02:57:00,
2013-01-26 22:00:00,13.5,10.1,30.43,NW,325,0.0,0.0,86,0.00,,SKC,0.00,VWS V14.00,2013-01-27 03:00:00,
2013-01-26 22:02:00,13.3,9.9,30.43,NW,325,0.0,0.0,86,0.00,,SKC,0.00,VWS V14.00,2013-01-27 03:02:00,
2013-01-26 22:07:00,13.1,9.7,30.44,NW,325,0.0,0.0,86,0.00,,SKC,0.00,VWS V14.00,2013-01-27 03:07:00,
2013-01-26 22:12:00,13.0,9.6,30.44,NW,325,0.0,0.0,86,0.00,,SKC,0.00,VWS V14.00,2013-01-27 03:12:00,
2013-01-26 22:17:00,13.0,9.6,30.43,NW,325,0.0,0.0,86,0.00,,SKC,0.00,VWS V14.00,2013-01-27 03:17:00,
2013-01-26 22:22:00,12.9,9.8,30.44,NW,325,0.0,0.0,87,0.00,,SKC,0.00,VWS V14.00,2013-01-27 03:22:00,
2013-01-26 22:27:00,12.8,9.7,30.44,NW,325,0.0,0.0,87,0.00,,SKC,0.00,VWS V14.00,2013-01-27 03:27:00,
2013-01-26 22:30:00,12.8,9.7,30.44,NW,325,0.0,0.0,87,0.00,,SKC,0.00,VWS V14.00,2013-01-27 03:30:00,
2013-01-26 22:32:00,12.8,9.7,30.44,NW,325,0.0,0.0,87,0.00,,SKC,0.00,VWS V14.00,2013-01-27 03:32:00,
2013-01-26 22:37:00,13.0,10.1,30.44,NW,325,1.0,2.0,88,0.00,,SKC,0.00,VWS V14.00,2013-01-27 03:37:00,
2013-01-26 22:42:00,13.1,10.2,30.45,NW,325,1.0,2.0,88,0.00,,SKC,0.00,VWS V14.00,2013-01-27 03:42:00,
2013-01-26 22:47:00,13.1,10.0,30.45,NW,325,2.0,2.0,87,0.00,,SKC,0.00,VWS V14.00,2013-01-27 03:47:00,
2013-01-26 22:52:00,13.1,10.0,30.46,NW,325,1.0,2.0,87,0.00,,SKC,0.00,VWS V14.00,2013-01-27 03:52:00,
2013-01-26 22:57:00,13.2,10.1,30.46,NW,325,0.0,2.0,87,0.00,,SKC,0.00,VWS V14.00,2013-01-27 03:57:00,
2013-01-26 23:00:00,13.1,10.0,30.46,NW,325,0.0,2.0,87,0.00,,SKC,0.00,VWS V14.00,2013-01-27 04:00:00,
2013-01-26 23:02:00,13.2,10.1,30.46,NW,325,0.0,2.0,87,0.00,,SKC,0.00,VWS V14.00,2013-01-27 04:02:00,
2013-01-26 23:07:00,13.0,9.6,30.46,NW,325,0.0,2.0,86,0.00,,SKC,0.00,VWS V14.00,2013-01-27 04:07:00,
2013-01-26 23:12:00,12.8,9.4,30.46,NW,325,0.0,2.0,86,0.00,,SKC,0.00,VWS V14.00,2013-01-27 04:12:00,
2013-01-26 23:17:00,12.7,9.3,30.46,NW,325,0.0,2.0,86,0.00,,SKC,0.00,VWS V14.00,2013-01-27 04:17:00,
2013-01-26 23:22:00,12.4,9.0,30.46,NW,325,0.0,2.0,86,0.00,,SKC,0.00,VWS V14.00,2013-01-27 04:22:00,
2013-01-26 23:27:00,12.2,8.8,30.46,NW,325,0.0,0.0,86,0.00,,SKC,0.00,VWS V14.00,2013-01-27 04:27:00,
2013-01-26 23:30:00,12.3,8.9,30.46,NW,325,0.0,2.0,86,0.00,,SKC,0.00,VWS V14.00,2013-01-27 04:30:00,
2013-01-26 23:32:00,12.0,8.6,30.46,NW,325,0.0,0.0,86,0.00,,SKC,0.00,VWS V14.00,2013-01-27 04:32:00,
2013-01-26 23:37:00,11.8,8.4,30.46,NW,325,0.0,0.0,86,0.00,,SKC,0.00,VWS V14.00,2013-01-27 04:37:00,
2013-01-26 23:42:00,11.7,8.3,30.47,NW,325,0.0,0.0,86,0.00,,SKC,0.00,VWS V14.00,2013-01-27 04:42:00,
2013-01-26 23:47:00,11.4,8.0,30.46,NW,325,0.0,0.0,86,0.00,,SKC,0.00,VWS V14.00,2013-01-27 04:47:00,
2013-01-26 23:52:00,11.3,7.9,30.46,NW,325,0.0,0.0,86,0.00,,SKC,0.00,VWS V14.00,2013-01-27 04:52:00,
2013-01-26 23:57:00,11.2,7.8,30.46,NW,325,0.0,0.0,86,0.00,,SKC,0.00,VWS V14.00,2013-01-27 04:57:00,